Вернуться в каталог

STARLINK-32158

АктивенСвязьVLEO
NORAD 60267·PAYLOAD·🇺🇸 United States

Запущен Jul 27, 2024 с Cape Canaveral Space Force Station

Loading…

Ближайшие Пролёты (ближайшие 24 часа)

TLE

СвежийSource: CelesTrak SupGP

Эпоха: Sep 14, 2026, 21:21 UTC

1 60267C 24131N   26257.89006944  .00056399  00000+0  16665-2 0  2578
2 60267  53.1563 251.6907 0001573  92.1912 249.2616 15.34358674    13

Отслеживайте STARLINK-32158 в реальном времени с AllMySat

Download on the App Store